Simultaneous Nadir Overpasses (SNOs) Predictions

Prediction of SNOs between METOP-C and LANDSAT-8 Satellite Orbit:

Table of predicted SNOs for the next 14.0 days since TLE Epoch: 3/12/2022
Index Date (METOP-C) Time (METOP-C) Lat,Lon (METOP-C) SZA (METOP-C ) Date (LANDSAT-8) Time (LANDSAT-8) Lat,Lon (LANDSAT-8) SZA (LANDSAT-8 ) Distance(km) Time Diff (sec)
1 03/13/2022 04:01:12 81.10, 158.85 85.78 03/13/2022 04:01:16 81.10, 158.88 85.78 0.69 4
2 03/13/2022 04:51:52 -81.12, -33.19 94.16 03/13/2022 04:50:42 -81.12, -33.19 94.19 0.09 70
3 03/15/2022 22:44:56 -81.09, 57.60 95.34 03/15/2022 22:46:04 -81.09, 57.49 95.32 1.83 68
4 03/15/2022 23:35:35 81.10,-134.72 84.69 03/15/2022 23:35:30 81.09,-134.82 84.68 1.85 5
5 03/18/2022 18:19:19 -81.07, 123.60 96.48 03/18/2022 18:20:17 -81.07, 123.73 96.44 2.30 58
6 03/18/2022 19:09:57 81.10, -68.32 83.60 03/18/2022 19:09:42 81.10, -68.24 83.61 1.32 15
7 03/21/2022 13:53:41 -81.08,-169.69 97.53 03/21/2022 13:54:30 -81.08,-169.76 97.52 1.27 49
8 03/21/2022 14:44:19 81.11, -1.58 82.56 03/21/2022 14:43:55 81.10, -1.76 82.52 3.28 24
9 03/24/2022 09:28:04 -81.08,-103.40 98.63 03/24/2022 09:28:43 -81.08,-103.35 98.61 0.79 39



Historial Predications of SNOs between METOP-C and LANDSAT-8
